ATLAS 5 CENTAUR DEB, 43952

Orbit data source: Space-Track

ATLAS 5 CENTAUR DEB, 43952 is space debris in HEO originally from a launch on Wed, 17 Sep 2014 UTC launched from the Air Force Eastern Test Range (AFETR). Debris objects in space refer to the collection of defunct objects orbiting the Earth. Examples of debris include non-operational satellites, rocket bodies, and fragments generated from explosions, collisions, or faulty payload assembly.

Loading next visibility...
Identifier
43952, 2014-055F
Orbit
HEO
Country
Flag of USUS
Related business
Flag of USUnited Launch Alliance/Lockheed Martin (US)
Manufacturer
Unknown
Mission
Spacecraft
Bus & Motor
Unknown
Mass
Unknown
Launch date (UTC)
2014-09-17 (12 years ago)
Launch vehicle
Unknown
Launch site
Air Force Eastern Test Range (AFETR)
Object type
Payload
Rocket body
Debris
Shape & HBR
Unknown shape, 1.1 m
Radar Cross Section
RCS unknown

Expand to show TLE details & history
Last TLE update: 1 day ago

TLE from 1 day ago
0 ATLAS 5 CENTAUR DEB
1 43952U 14055F   26235.04977611 -.00000334  00000-0  00000-0 0  9992
2 43952  21.4191  69.6662 5128975 302.3310  17.8967  1.97449766 57358
Epoch: 2026-08-23T01:11Z
TLE epoch observation values (Epoch: 2026-08-23T01:11:40.655Z)
Latitude
0.00003°
Longitude
80.45773°
Altitude
9,159.169 km
Speed
6.038 km/s
True Right ascension
04h 38m 54s
True Declination
0° 00' 00"
Sunlit
Object was in daylight at epoch
Visualization orbit readout
Latitude
Unknown
Longitude
Unknown
Altitude
Unknown
Speed
Unknown
Apparent Right ascension
Unknown
Apparent Declination
Unknown
Sunlit
N/A
Visualization observer readout
Local Sidereal Time
15:53:49
Azimuth
Unknown
Elevation
Unknown
Doppler factor
Unknown
Orbital elements
Apogee altitude
34,229.474 km
Perigee altitude
6,696.158 km
Semi-major axis
26,840.953 km
Eccentricity
0.5129
Inclination
21.4191°
RAAN
69.6662°
Arg. of periapsis
302.331°
True anomaly
57.48445°
Mean anomaly
17.8967°
Eccentric anomaly
34.57204°
Mean motion
0.49357 °/min
Orbital period
729.38 mins
BSTAR
0
Loading maneuver chart data...
Computing Atmospheric mass density...

Documentation

Showing up to 5 results
|